Погода в Шевченкове

Украина / Днепропетровская область     47°53′01″N   34°08′56″E
темп.,
°C
ветер,
м/с
пор.,
м/с
влажн.,
%
обл.,
%
осадки,
мм/ч
давл.,
гПа
погр.,
м
28 февраля, вс
вс2823:00+3сз4890100 0.1 1019519
02:00+2ссз3697100 0.1 1019401
05:00+2ссз5997100 0.3 1019451
08:00+2ссз5896100 0.6 1020528
11:00+3ссз5888100 0.1 1021608
14:00+3ссз6881100 0.3 1021745
17:00+2сз5887100 0.1 1021606
20:00+1сз3790100 0.2 1022527
1 марта, пн
пн123:000зсз3491100 0.0 1022121
02:000зсз239399 0.0 102356
05:00−1ссз229439 0.0 102441
08:00+1с239162 0.1 1026239
11:00+3ссв336692 0.1 1026869
14:00+3ссв447196 0.1 1028757
17:00+2ссв247399 0.1 1028238
20:00+1св237699 0.1 103077
2 марта, вт
вт223:00+1зсз1178100 0.0 103122
02:00+1зсз2377100 0.0 103088
05:00−1зсз339187 0.0 102972
08:00+1з588389 0.0 1028396
11:00+5з6969100 0.0 1026733
14:00+7зюз8116699 0.0 1024826
17:00+7з6127233 0.0 1021647
20:00+5з6128141 0.0 1021444
3 марта, ср
ср323:00+3сз488961 0.0 1021213
02:00+2ссз5109064 0.0 1021504
05:00+3сз61186100 0.0 1021544
08:00+3ссз8128078 0.0 1023938
11:00+3с796778 0.0 1025964
14:00+5ссз686068 0.0 10251098
17:00+4с366528 0.0 1025317
20:000ссв368215 0.0 1027193
4 марта, чт
чт423:00−1с22840 0.0 102824
02:00−1ююз11840 0.0 102721
05:00−1юз22860 0.0 102636
08:00+1ююз35780 0.0 1025220
11:00+6юз57580 0.0 1023898
14:00+8юз68533 0.0 10201029
17:00+6юз5106417 0.0 1018337
20:00+3юз6137747 0.0 1018444